This is the latest recevied weather packets stored in our database for station/object E20EHQ-13. If no packets are shown the sender has not sent any weather packets the latest 1 day(s).
| Time | Temp. | Humidity | Pressure | Rain* | Wind** | Luminosity | Snow |
|---|---|---|---|---|---|---|---|
| 1778044079 | 33.33° C | 66% | 1007.9 hPa | 0 mm | 2.24 m/s, 141° | 313 W/m² | - |
| 1778043479 | 33.33° C | 66% | 1008.1 hPa | 0 mm | 2.24 m/s, 136° | 262 W/m² | - |
| 1778043179 | 33.89° C | 64% | 1008.3 hPa | 0 mm | 0.45 m/s, 127° | 279 W/m² | - |
| 1778042879 | 33.89° C | 65% | 1008.3 hPa | 0 mm | 2.24 m/s, 127° | 274 W/m² | - |
| 1778042279 | 33.89° C | 64% | 1008.4 hPa | 0 mm | 0.45 m/s, 105° | 347 W/m² | - |
| 1778041979 | 33.33° C | 64% | 1008.5 hPa | 0 mm | 0.89 m/s, 186° | 0 W/m² | - |
| 1778041680 | 33.33° C | 64% | 1008.5 hPa | 0 mm | 1.79 m/s, 186° | 0 W/m² | - |
| 1778041109 | 33.33° C | 63% | 1008.5 hPa | 0 mm | 2.68 m/s, 195° | 616 W/m² | - |
| 1778040809 | 33.33° C | 64% | 1008.6 hPa | 0 mm | 1.79 m/s, 169° | 713 W/m² | - |
| 1778040509 | 33.33° C | 63% | 1008.7 hPa | 0 mm | 1.34 m/s, 212° | 786 W/m² | - |
| 1778040209 | 33.33° C | 65% | 1008.8 hPa | 0 mm | 0.89 m/s, 123° | 882 W/m² | - |
| 1778039909 | 32.78° C | 65% | 1008.9 hPa | 0 mm | 0.45 m/s, 123° | 866 W/m² | - |
| 1778039609 | 32.78° C | 67% | 1008.9 hPa | 0 mm | 1.34 m/s, 116° | 857 W/m² | - |
| 1778039309 | 32.78° C | 68% | 1008.9 hPa | 0 mm | 1.79 m/s, 118° | 843 W/m² | - |
| 1778039009 | 32.22° C | 68% | 1009 hPa | 0 mm | 0.89 m/s, 182° | 836 W/m² | - |
| 1778038710 | 32.22° C | 69% | 1009.1 hPa | 0 mm | 1.34 m/s, 195° | 812 W/m² | - |
| 1778038410 | 32.22° C | 70% | 1009.1 hPa | 0 mm | 0.89 m/s, 153° | 756 W/m² | - |
| 1778038110 | 32.22° C | 72% | 1009.1 hPa | 0 mm | 0.45 m/s, 167° | 680 W/m² | - |
| 1778037810 | 31.67° C | 73% | 1009.2 hPa | 0 mm | 1.34 m/s, 140° | 686 W/m² | - |
| 1778037510 | 31.67° C | 74% | 1009.3 hPa | 0 mm | 0.89 m/s, 179° | 491 W/m² | - |
| 1778036909 | 31.67° C | 74% | 1009.3 hPa | 0 mm | 0.45 m/s, 164° | 602 W/m² | - |
| 1778036609 | 31.67° C | 74% | 1009.3 hPa | 0 mm | 0.45 m/s, 163° | 573 W/m² | - |
| 1778036309 | 31.67° C | 74% | 1009.3 hPa | 0 mm | 0.89 m/s, 164° | 590 W/m² | - |
| 1778036009 | 31.67° C | 74% | 1009.3 hPa | 0 mm | 1.34 m/s, 164° | 575 W/m² | - |
| 1778035709 | 31.67° C | 74% | 1009.4 hPa | 0 mm | 0.45 m/s, 176° | 483 W/m² | - |
* Rain latest hour (hover to see other rain measurements)
** Current wind speed in m/s (hover to see current wind gust speed)